FW5940 Weather Reports


Display with metric or nautical units.
time (UTC)temp
F
wind
direction
speed
MPH
gust
MPH
rain 1hr
in
rain 24hr
in
rain mn
in
humidity
%
barometer
mb
20260509124536 71 96 3.0 8.0 0.00 0.00 0.00 48 1016.1
20260509123515 69 69 4.0 7.0 0.00 0.00 0.00 50 1016.2
20260509122517 71 88 4.0 8.0 0.00 0.00 0.00 48 1016.3
20260509121516 70 75 4.0 9.0 0.00 0.00 0.00 49 1016.4
20260509120516 70 99 3.0 9.0 0.00 0.00 0.00 51 1016.5
20260509115538 69 99 4.0 9.0 0.00 0.00 0.00 52 1016.6
20260509114515 69 89 4.0 10.0 0.00 0.00 0.00 52 1016.7
20260509113558 69 68 4.0 9.0 0.00 0.00 0.00 51 1016.6
20260509112516 68 70 5.0 14.0 0.00 0.00 0.00 54 1016.7
20260509111515 69 121 3.0 7.0 0.00 0.00 0.00 55 1016.7
20260509110516 68 90 4.0 9.0 0.00 0.00 0.00 57 1016.9
20260509105516 68 112 5.0 10.0 0.00 0.00 0.00 58 1017.0
20260509104516 68 92 5.0 9.0 0.00 0.00 0.00 56 1017.1
20260509103515 67 97 4.0 10.0 0.00 0.00 0.00 56 1017.2
20260509102516 67 101 6.0 12.0 0.00 0.00 0.00 57 1017.3
20260509101536 67 95 5.0 10.0 0.00 0.00 0.00 56 1017.4
20260509100515 66 103 5.0 13.0 0.00 0.00 0.00 57 1017.5
20260509095538 66 107 5.0 10.0 0.00 0.00 0.00 60 1017.5
20260509094516 65 84 4.0 8.0 0.00 0.00 0.00 64 1017.5
20260509093516 63 70 5.0 10.0 0.00 0.00 0.00 65 1017.6
20260509092535 63 58 4.0 9.0 0.00 0.00 0.00 69 1017.7
20260509091516 62 74 3.0 6.0 0.00 0.00 0.00 69 1017.7
20260509090515 61 124 3.0 6.0 0.00 0.00 0.00 71 1017.8
20260509085517 60 104 3.0 6.0 0.00 0.00 0.00 71 1017.8
20260509084515 59 81 4.0 7.0 0.00 0.00 0.00 74 1017.8
20260509083518 57 46 3.0 5.0 0.00 0.00 0.00 77 1017.7
20260509082516 56 77 3.0 5.0 0.00 0.00 0.00 77 1017.7
20260509081515 55 50 3.0 5.0 0.00 0.00 0.00 78 1017.7
20260509080557 55 32 3.0 5.0 0.00 0.00 0.00 79 1017.8
20260509075515 55 82 1.0 4.0 0.00 0.00 0.00 79 1017.8
20260509074517 55 124 1.0 4.0 0.00 0.00 0.00 78 1017.8
20260509073515 55 123 2.0 3.0 0.00 0.00 0.00 78 1017.8
20260509072516 55 120 1.0 2.0 0.00 0.00 0.00 78 1017.7
20260509071516 54 120 3.0 4.0 0.00 0.00 0.00 78 1017.6
20260509070515 54 123 2.0 4.0 0.00 0.00 0.00 79 1017.7
20260509065516 54 139 1.0 4.0 0.00 0.00 0.00 79 1017.7
20260509064515 53 140 0.0 2.0 0.00 0.00 0.00 79 1017.7
20260509063536 53 140 0.0 1.0 0.00 0.00 0.00 79 1017.8
20260509062515 52 140 1.0 3.0 0.00 0.00 0.00 80 1017.9
20260509061516 51 141 1.0 3.0 0.00 0.00 0.00 81 1018.0
20260509060517 51 174 1.0 4.0 0.00 0.00 0.00 82 1018.0
20260509055518 50 182 1.0 3.0 0.00 0.00 0.00 83 1018.0
20260509054517 50 183 1.0 4.0 0.00 0.00 0.00 84 1018.0
20260509053515 49 186 2.0 4.0 0.00 0.00 0.00 85 1017.9
20260509052516 48 192 2.0 5.0 0.00 0.00 0.00 87 1017.8
20260509051516 46 198 2.0 5.0 0.00 0.00 0.00 88 1017.7
20260509050516 46 200 1.0 2.0 0.00 0.00 0.00 88 1017.6
20260509045518 45 200 0.0 2.0 0.00 0.00 0.00 88 1017.4
20260509044517 45 200 2.0 4.0 0.00 0.00 0.00 88 1017.2
20260509043516 45 255 2.0 3.0 0.00 0.00 0.00 88 1017.0
20260509042517 45 260 1.0 2.0 0.00 0.00 0.00 88 1016.9
20260509041518 45 27 1.0 2.0 0.00 0.00 0.00 88 1016.8
20260509040515 45 29 1.0 2.0 0.00 0.00 0.00 89 1016.7
20260509035517 44 28 0.0 2.0 0.00 0.00 0.00 89 1016.8
20260509034516 44 44 0.0 1.0 0.00 0.00 0.00 89 1016.8
20260509033517 43 44 0.0 1.0 0.00 0.00 0.00 89 1016.8
20260509032516 43 44 0.0 2.0 0.00 0.00 0.00 89 1016.9
20260509031515 43 44 0.0 1.0 0.00 0.00 0.00 89 1016.8
20260509030516 43 44 0.0 1.0 0.00 0.00 0.00 89 1016.8
20260509025515 43 44 0.0 2.0 0.00 0.00 0.00 89 1016.7
20260509024517 43 0.0 0.0 0.00 0.00 0.00 89 1016.7
20260509023516 43 0.0 0.0 0.00 0.00 0.00 88 1016.7
20260509022517 44 44 1.0 2.0 0.00 0.00 0.00 88 1016.6
20260509021516 44 44 0.0 1.0 0.00 0.00 0.00 88 1016.5
20260509020515 44 44 0.0 2.0 0.00 0.00 0.00 88 1016.5
20260509015515 44 0.0 0.0 0.00 0.00 0.00 88 1016.3
20260509014515 44 44 0.0 1.0 0.00 0.00 0.00 88 1016.3
20260509013516 44 44 0.0 2.0 0.00 0.00 0.00 88 1016.4
20260509012536 44 0.0 0.0 0.00 0.00 0.00 88 1016.5
20260509011517 44 0.0 0.0 0.00 0.00 0.00 88 1016.5
20260509010517 44 44 0.0 1.0 0.00 0.00 0.00 88 1016.5
20260509005615 44 44 0.0 1.0 0.00 0.00 0.00 88 1016.6
20260509004535 45 0.0 0.0 0.00 0.00 0.00 88 1016.6
20260509003515 45 0.0 0.0 0.00 0.00 0.00 88 1016.6
20260509002538 45 0.0 0.0 0.00 0.00 0.00 88 1016.5
20260509001516 46 0.0 0.0 0.00 0.00 0.00 87 1016.6
20260509000517 46 0.0 0.0 0.00 0.00 0.00 87 1016.7
20260508235516 46 0.0 0.0 0.00 0.00 0.00 87 1016.6
20260508234535 46 0.0 0.0 0.00 0.00 0.00 87 1016.7
20260508233516 46 44 0.0 1.0 0.00 0.00 0.00 87 1016.8
20260508232515 46 44 0.0 1.0 0.00 0.00 0.00 87 1016.8
20260508231516 47 0.0 0.0 0.00 0.00 0.00 87 1016.8
20260508230516 47 0.0 0.0 0.00 0.00 0.00 87 1016.8
20260508225517 47 0.0 0.0 0.00 0.00 0.00 86 1016.8
20260508224516 47 0.0 0.0 0.00 0.00 0.00 86 1016.8
20260508223515 48 0.0 0.0 0.00 0.00 0.00 86 1016.8
20260508222537 48 44 0.0 1.0 0.00 0.00 0.00 86 1017.0
20260508221535 48 44 0.0 1.0 0.00 0.00 0.00 86 1016.9
20260508220516 48 44 0.0 1.0 0.00 0.00 0.00 85 1016.9
20260508215515 49 0.0 0.0 0.00 0.00 0.00 85 1016.9
20260508214520 49 43 1.0 2.0 0.00 0.00 0.00 84 1016.9
20260508213516 50 0.0 0.0 0.00 0.00 0.00 83 1016.9
20260508212517 50 0.0 0.0 0.00 0.00 0.00 82 1016.8
20260508211516 50 0.0 0.0 0.00 0.00 0.00 82 1016.8
20260508210535 51 0.0 0.0 0.00 0.00 0.00 81 1016.8
20260508205518 51 0.0 0.0 0.00 0.00 0.00 81 1016.8
20260508204516 52 43 0.0 2.0 0.00 0.00 0.00 79 1016.8
20260508203519 53 44 1.0 3.0 0.00 0.00 0.00 77 1016.7
20260508202516 53 44 1.0 2.0 0.00 0.00 0.00 75 1016.6
20260508201517 54 44 1.0 3.0 0.00 0.00 0.00 74 1016.6
20260508200557 55 41 2.0 4.0 0.00 0.00 0.00 73 1016.6
20260508195535 55 39 2.0 3.0 0.00 0.00 0.00 74 1016.5
20260508194518 56 38 2.0 4.0 0.00 0.00 0.00 71 1016.4
20260508193516 57 39 2.0 4.0 0.00 0.00 0.00 69 1016.3
20260508192517 58 42 2.0 4.0 0.00 0.00 0.00 67 1016.2
20260508191516 58 39 3.0 6.0 0.00 0.00 0.00 67 1016.1
20260508190515 58 33 2.0 4.0 0.00 0.00 0.00 67 1015.9
20260508185516 59 32 2.0 5.0 0.00 0.00 0.00 65 1015.7
20260508184535 60 35 3.0 5.0 0.00 0.00 0.00 64 1015.6
20260508183517 61 40 2.0 5.0 0.00 0.00 0.00 63 1015.6
20260508182515 61 36 3.0 6.0 0.00 0.00 0.00 61 1015.5
20260508181638 62 38 3.0 5.0 0.00 0.00 0.00 60 1015.3
20260508180516 62 37 3.0 5.0 0.00 0.00 0.00 60 1015.2
20260508175516 63 39 3.0 7.0 0.00 0.00 0.00 58 1015.2
20260508174515 63 43 3.0 8.0 0.00 0.00 0.00 57 1015.0
20260508173515 63 36 5.0 10.0 0.00 0.00 0.00 57 1015.0
20260508172516 64 25 4.0 9.0 0.00 0.00 0.00 57 1014.9
20260508171515 64 10 5.0 9.0 0.00 0.00 0.00 55 1014.9
20260508170517 65 20 5.0 10.0 0.00 0.00 0.00 55 1014.8
20260508165515 65 31 7.0 12.0 0.00 0.00 0.00 54 1014.9
20260508164538 66 24 5.0 12.0 0.00 0.00 0.00 54 1014.9
20260508163517 66 26 6.0 11.0 0.00 0.00 0.00 55 1014.8
20260508162515 66 359 7.0 13.0 0.00 0.00 0.00 55 1014.7
20260508161517 66 61 3.0 7.0 0.00 0.00 0.00 55 1014.7
20260508160515 66 87 5.0 10.0 0.00 0.00 0.00 55 1014.6
20260508155538 66 75 3.0 8.0 0.00 0.00 0.00 55 1014.6
20260508154515 66 46 7.0 14.0 0.00 0.00 0.00 55 1014.5
20260508153515 66 50 5.0 11.0 0.00 0.00 0.00 56 1014.5
20260508152516 66 27 4.0 11.0 0.00 0.00 0.00 56 1014.5
20260508151515 65 348 3.0 9.0 0.00 0.00 0.00 55 1014.7
20260508150517 65 29 5.0 11.0 0.00 0.00 0.00 57 1014.9
20260508145516 65 9 4.0 10.0 0.00 0.00 0.00 58 1015.0
20260508144517 64 38 6.0 10.0 0.00 0.00 0.00 58 1015.2
20260508143516 65 50 4.0 9.0 0.00 0.00 0.00 57 1015.3
20260508142515 66 58 3.0 10.0 0.00 0.00 0.00 57 1015.3
20260508141520 65 27 4.0 11.0 0.00 0.00 0.00 58 1015.2
20260508140515 67 44 5.0 12.0 0.00 0.00 0.00 56 1015.1
20260508135517 65 56 3.0 9.0 0.00 0.00 0.00 59 1015.2
20260508134515 65 53 5.0 10.0 0.00 0.00 0.00 59 1015.3
20260508133537 65 21 4.0 9.0 0.00 0.00 0.00 58 1015.5
20260508132516 65 57 3.0 7.0 0.00 0.00 0.00 59 1015.5
20260508131515 65 38 5.0 11.0 0.00 0.00 0.00 60 1015.5
20260508130536 64 22 5.0 10.0 0.00 0.00 0.00 60 1015.6
20260508125515 66 40 7.0 11.0 0.00 0.00 0.00 58 1015.6